Date,TemperatureHighF,TemperatureAvgF,TemperatureLowF,DewpointHighF,DewpointAvgF,DewpointLowF,HumidityHigh,HumidityAvg,HumidityLow,PressureMaxIn,PressureMinIn,WindSpeedMaxMPH,WindSpeedAvgMPH,GustSpeedMaxMPH,PrecipitationSumIn
2013-1-1,41,37,29,34,28,15,78,68,57,30.03,29.84,24,1,26,0.00
2013-1-2,32,30,26,22,20,14,74,66,59,30.19,30.02,23,-1,23,0.00
2013-1-3,31,27,22,23,20,16,83,73,65,30.23,30.09,22,-8,22,0.00
2013-1-4,38,35,29,30,27,21,81,72,65,30.10,29.95,19,-2,19,0.00
2013-1-5,42,37,33,33,29,25,79,71,62,30.31,29.99,19,-8,19,0.00
2013-1-6,42,38,34,38,33,25,92,82,68,30.27,30.01,12,-14,13,0.00
2013-1-7,41,38,33,36,31,25,84,74,62,30.45,30.05,18,-8,20,0.00
2013-1-8,48,41,34,39,35,28,90,78,58,30.48,30.38,15,-5,17,0.00
2013-1-9,50,44,35,43,38,31,88,78,65,30.43,30.13,17,-8,21,0.00
2013-1-10,46,42,40,38,34,29,79,71,61,30.59,30.20,18,-5,18,0.00
2013-1-11,46,41,34,46,37,28,98,85,71,30.58,30.17,10,-10,11,0.29
2013-1-12,46,44,42,46,43,41,100,99,98,30.21,30.12,12,-11,13,0.33
2013-1-13,51,45,40,51,45,39,100,99,99,30.22,30.05,8,-11,8,0.01
2013-1-14,51,46,38,51,43,33,100,92,69,30.31,30.04,25,-2,25,0.01
2013-1-15,39,38,36,35,32,30,90,77,69,30.37,30.26,16,-6,17,0.07
2013-1-16,38,37,34,38,36,31,98,96,78,30.27,29.82,17,-5,17,0.26
2013-1-17,42,39,34,37,33,24,100,79,66,30.13,29.93,20,-8,21,0.00
2013-1-18,34,27,24,26,14,8,72,57,42,30.54,30.04,29,-5,32,0.00
2013-1-19,49,41,26,38,30,13,78,66,51,30.48,29.98,23,-7,26,0.00
2013-1-20,54,45,34,38,33,19,78,64,48,30.03,29.70,22,-4,23,0.00
2013-1-21,33,30,28,28,21,12,95,70,49,30.15,29.83,16,-5,19,0.00
2013-1-22,28,23,17,27,12,3,95,63,53,30.18,29.82,26,1,27,0.00
2013-1-23,19,17,15,7,5,0,69,59,49,30.26,30.17,21,-4,21,0.00
2013-1-24,23,19,15,11,7,2,76,60,47,30.37,30.17,34,3,36,0.00
2013-1-25,24,21,17,22,12,7,92,70,57,30.43,30.09,20,-8,22,0.00
2013-1-26,26,23,19,22,14,8,91,69,52,30.36,30.06,34,-2,34,0.00
2013-1-27,32,27,21,16,13,8,75,56,38,30.54,30.35,31,-5,33,0.00
2013-1-28,36,32,24,35,25,11,97,78,47,30.52,30.04,10,-10,11,0.15
2013-1-29,40,36,34,39,35,33,100,95,87,30.23,30.03,9,-11,9,0.09
2013-1-30,60,54,40,57,52,38,100,95,88,30.17,29.50,36,-6,36,0.00
2013-1-31,60,45,33,57,36,21,100,73,54,29.76,29.13,35,0,35,0.00
2013-2-1,33,30,27,23,18,12,73,61,50,30.21,29.75,31,-2,31,0.00
2013-2-2,31,28,24,25,16,10,93,64,43,30.34,30.11,20,-3,25,0.00
2013-2-3,31,28,23,24,22,19,93,77,64,30.11,29.80,14,-8,14,0.00
2013-2-4,31,29,26,26,19,14,88,65,55,30.02,29.81,18,-6,18,0.00
2013-2-5,30,29,26,29,25,14,94,85,59,30.04,29.95,13,-5,13,0.00
2013-2-6,38,34,28,31,26,9,93,75,41,30.39,29.95,28,-6,28,0.03
2013-2-7,32,29,26,24,15,7,76,56,40,30.56,30.38,27,-3,27,0.00
2013-2-8,34,32,28,33,31,23,98,93,72,30.43,29.52,37,-1,41,0.35
2013-2-9,30,27,24,28,15,10,98,60,47,30.31,29.63,43,17,44,0.35
2013-2-10,35,27,22,20,13,5,72,57,34,30.51,30.30,29,-7,31,0.00
2013-2-11,48,40,27,48,39,20,99,95,71,30.41,29.70,22,-5,22,0.62
2013-2-12,40,38,35,38,34,31,100,85,75,29.99,29.72,15,-2,15,0.00
2013-2-13,39,36,34,33,30,25,90,81,61,29.97,29.71,11,-6,11,0.00
2013-2-14,42,36,32,34,31,26,97,83,54,30.06,29.74,15,-8,15,0.04
2013-2-15,50,42,34,41,38,32,98,86,67,30.08,29.96,19,-8,19,0.01
2013-2-16,41,36,31,38,31,26,95,83,66,29.98,29.71,28,-1,28,0.00
2013-2-17,31,27,21,28,16,10,88,64,44,29.89,29.57,41,10,41,0.00
2013-2-18,33,26,20,21,15,11,72,62,51,30.27,29.89,35,-2,35,0.00
2013-2-19,50,41,30,46,35,15,97,79,53,30.27,29.68,20,-11,23,0.25
2013-2-20,38,32,28,37,23,17,97,68,55,29.96,29.68,24,2,27,0.10
2013-2-21,34,29,26,23,20,18,78,69,59,30.28,29.94,33,1,33,0.00
2013-2-22,38,33,27,30,26,20,83,77,67,30.44,30.27,31,-5,32,0.00
2013-2-23,41,37,33,38,35,29,97,91,82,30.34,29.83,25,-7,25,0.18
2013-2-24,38,36,33,37,35,31,98,96,82,29.96,29.73,24,-3,24,0.07
2013-2-25,43,37,33,34,32,28,95,80,63,30.29,29.96,19,-8,19,0.00
2013-2-26,43,38,35,36,34,30,96,84,62,30.36,30.03,21,-8,21,0.12
2013-2-27,47,42,37,47,42,36,100,98,96,30.03,29.56,33,-5,36,1.24
2013-2-28,47,41,37,44,39,36,99,93,81,29.67,29.57,9,-10,9,0.09
2013-3-1,41,38,35,38,35,33,96,89,78,29.77,29.59,17,-6,17,0.09
2013-3-2,38,36,34,33,31,29,86,80,73,29.78,29.70,21,-6,22,0.00
2013-3-3,35,33,31,30,27,24,83,78,67,29.73,29.66,18,-4,18,0.00
2013-3-4,40,35,30,32,27,23,80,74,68,29.86,29.73,26,3,27,0.00
2013-3-5,43,38,32,36,31,26,89,76,62,30.08,29.86,22,-7,22,0.00
2013-3-6,42,39,34,37,35,32,93,86,75,30.06,29.90,38,5,38,0.02
2013-3-7,39,36,33,34,33,31,98,89,77,30.04,29.90,35,8,36,0.01
2013-3-8,40,35,32,37,33,31,99,95,72,30.15,29.97,30,2,30,0.22
2013-3-9,51,40,35,35,32,26,89,73,38,30.38,30.15,23,0,23,0.01
2013-3-10,46,38,34,38,34,30,94,84,69,30.44,30.35,12,-5,13,0.00
2013-3-11,54,44,34,47,41,33,100,89,76,30.38,30.17,11,-5,13,0.00
2013-3-12,54,50,42,52,49,41,99,94,85,30.17,29.74,30,-2,30,0.88
2013-3-13,45,41,37,42,36,33,98,82,66,29.89,29.81,15,-6,15,0.00
2013-3-14,39,34,31,35,24,17,90,67,54,29.94,29.86,32,2,32,0.00
2013-3-15,42,36,31,35,25,16,84,64,51,29.99,29.75,22,-4,23,0.00
2013-3-16,40,35,32,32,28,19,93,76,50,29.93,29.78,21,-3,21,0.00
2013-3-17,37,34,31,32,22,14,89,61,43,30.34,29.93,24,2,25,0.00
2013-3-18,35,32,26,32,20,11,97,61,43,30.48,30.12,23,-4,24,0.00
2013-3-19,40,37,33,39,36,32,98,97,94,30.12,29.65,30,-7,31,0.67
2013-3-20,42,37,33,36,27,22,94,67,51,29.89,29.79,19,-5,20,0.00
2013-3-21,39,34,31,31,28,20,94,79,56,29.88,29.66,21,-1,21,0.00
2013-3-22,41,35,30,31,25,18,75,66,56,29.87,29.71,24,-7,25,0.00
2013-3-23,43,39,34,33,30,25,78,70,60,29.92,29.78,30,1,30,0.00
2013-3-24,43,38,34,33,29,24,84,68,57,29.96,29.75,22,-7,26,0.00
2013-3-25,42,38,35,35,33,29,96,79,65,29.79,29.47,25,1,25,0.02
2013-3-26,48,41,37,38,34,32,88,77,55,29.87,29.57,23,-6,23,0.02
2013-3-27,47,41,36,38,34,28,86,75,63,29.95,29.85,13,-6,13,0.00
2013-3-28,46,41,38,40,36,33,91,84,77,30.11,29.94,13,-3,13,0.00
2013-3-29,49,43,39,38,37,35,91,78,63,30.15,30.06,16,-3,17,0.00
2013-3-30,52,44,38,39,35,29,87,72,43,30.18,30.10,11,-7,13,0.00
2013-3-31,57,47,38,46,39,32,97,76,40,30.19,29.67,20,3,20,0.14
2013-4-1,60,47,40,51,42,25,100,86,56,29.90,29.63,22,-5,22,0.21
2013-4-2,42,38,34,27,24,20,66,56,46,30.08,29.89,21,1,22,0.00
2013-4-3,44,38,34,31,24,20,64,56,50,30.29,30.07,24,9,24,0.00
2013-4-4,49,39,34,35,27,21,82,63,45,30.42,30.16,24,5,24,0.00
2013-4-5,55,45,40,41,35,28,89,71,36,30.16,29.73,33,-2,33,0.00
2013-4-6,48,40,36,32,24,14,78,53,30,30.37,29.96,30,7,33,0.00
2013-4-7,55,46,35,45,38,30,91,75,53,30.37,30.06,22,4,22,0.00
2013-4-8,67,52,44,49,45,42,95,79,43,30.12,30.02,15,3,19,0.00
2013-4-9,67,56,48,51,47,42,96,74,40,30.09,29.94,15,3,15,0.00
2013-4-10,67,52,45,54,47,44,97,85,61,30.05,29.85,31,4,57,0.33
2013-4-11,61,49,44,53,46,38,98,89,72,30.12,29.82,17,3,17,0.40
2013-4-12,46,42,40,41,39,34,98,90,68,30.12,29.76,30,0,31,0.76
2013-4-13,56,45,38,43,39,35,98,83,50,30.01,29.74,22,6,22,0.05
2013-4-14,52,48,44,43,40,34,87,73,62,30.27,29.99,18,6,18,0.00
2013-4-15,56,47,41,41,37,33,93,70,50,30.44,30.26,10,2,11,0.00
2013-4-16,61,52,43,54,47,41,94,84,70,30.44,30.18,20,5,24,0.00
2013-4-17,63,54,48,54,45,37,96,74,41,30.35,30.15,16,4,17,0.02
2013-4-18,61,52,43,51,43,36,94,74,43,30.43,30.17,16,4,17,0.00
2013-4-19,71,61,53,64,59,51,98,94,78,30.18,29.73,27,6,29,0.12
2013-4-20,61,51,44,61,46,37,99,83,56,30.28,29.70,27,-2,27,0.47
2013-4-21,52,43,38,38,30,24,79,60,43,30.69,30.28,30,9,31,0.00
2013-4-22,52,45,39,40,36,31,84,71,47,30.72,30.55,25,7,25,0.00
2013-4-23,47,44,40,44,40,35,96,89,77,30.56,30.08,25,10,25,0.03
2013-4-24,63,49,44,50,45,42,97,86,61,30.09,29.92,21,6,24,0.00
2013-4-25,59,52,47,51,42,30,96,71,38,30.32,29.90,27,-7,27,0.00
2013-4-26,66,52,46,46,40,32,87,66,30,30.44,30.32,12,2,12,0.00
2013-4-27,61,50,43,49,44,37,97,81,46,30.46,30.35,10,3,11,0.00
2013-4-28,62,52,40,50,42,30,98,73,33,30.38,30.28,16,3,16,0.01
2013-4-29,59,54,51,48,46,42,87,73,55,30.32,30.26,16,3,16,0.00
2013-4-30,65,56,48,49,39,30,87,57,29,30.38,30.27,14,2,14,0.00
2013-5-1,66,54,46,50,45,35,92,72,50,30.52,30.38,16,3,17,0.00
2013-5-2,69,54,46,54,47,44,96,79,43,30.51,30.37,19,2,20,0.00
2013-5-3,62,53,47,50,44,39,94,74,55,30.51,30.40,16,5,17,0.00
2013-5-4,62,52,44,49,45,40,96,78,58,30.41,30.30,14,4,15,0.00
2013-5-5,60,49,43,47,43,40,95,80,59,30.34,30.28,17,4,17,0.00
2013-5-6,65,52,43,53,47,41,95,85,62,30.33,30.20,12,2,12,0.00
2013-5-7,72,56,47,62,54,46,98,91,70,30.22,30.14,9,2,9,0.00
2013-5-8,68,60,55,65,59,53,98,95,85,30.18,30.05,22,3,23,0.10
2013-5-9,63,57,52,62,56,52,98,97,94,30.07,29.91,12,2,12,0.17
2013-5-10,77,62,55,60,57,53,94,83,56,30.03,29.96,13,2,14,0.01
2013-5-11,67,61,58,63,58,55,93,90,84,29.96,29.74,21,4,21,0.32
2013-5-12,65,59,53,58,51,42,91,78,59,29.92,29.67,15,-4,15,0.02
2013-5-13,56,52,49,43,39,35,70,61,49,30.10,29.92,21,6,21,0.00
2013-5-14,58,51,46,44,39,35,82,65,48,30.13,30.05,22,4,24,0.00
2013-5-15,63,55,47,56,49,41,88,79,47,30.12,29.73,19,3,20,0.01
2013-5-16,77,64,54,57,53,49,88,70,39,29.86,29.73,17,2,18,0.00
2013-5-17,67,60,55,54,50,46,84,69,54,30.24,29.85,15,3,15,0.00
2013-5-18,70,59,52,56,51,48,86,76,54,30.35,30.24,13,2,13,0.00
2013-5-19,61,57,54,56,53,48,87,85,75,30.40,30.22,14,2,14,0.14
2013-5-20,77,64,58,69,59,53,86,83,74,30.23,29.99,12,2,12,0.15
2013-5-21,85,71,62,73,62,55,81,75,64,30.01,29.87,14,2,17,0.00
2013-5-22,71,62,55,63,52,46,76,70,61,30.01,29.91,15,3,15,0.00
2013-5-23,74,68,64,64,51,39,72,56,41,29.97,29.83,21,5,21,0.29
2013-5-24,82,60,50,82,35,25,66,40,28,29.90,29.71,31,-11,32,0.49
2013-5-25,51,49,47,42,33,19,76,56,31,29.93,29.83,37,3,37,0.17
2013-5-26,60,54,49,49,45,41,76,71,62,30.21,29.90,24,7,24,0.00
2013-5-27,72,59,49,52,46,41,75,64,38,30.25,30.15,15,3,16,0.00
2013-5-28,71,59,53,57,36,-3,73,47,8,30.27,30.19,15,2,15,0.20
2013-5-29,76,65,58,71,51,-42,68,20,1,30.19,30.03,23,2,23,0.12
2013-5-30,89,75,64,73,53,-38,68,43,1,30.15,30.07,15,2,15,0.00
2013-5-31,90,76,66,73,56,17,68,53,15,30.15,30.01,22,2,22,0.00
2013-6-1,87,76,68,72,54,5,68,49,8,30.05,29.95,20,4,23,0.00
2013-6-2,80,72,66,69,48,-37,67,35,1,29.97,29.83,22,5,22,0.00
2013-6-3,74,67,64,74,65,-37,1,0,1,29.89,29.83,15,2,20,0.32
2013-6-4,71,64,58,64,52,-13,69,63,17,30.12,29.87,26,5,27,0.00
2013-6-5,73,63,56,59,48,-41,70,58,3,30.25,30.12,10,3,10,0.00
2013-6-6,72,65,57,66,54,-27,67,36,5,30.21,30.07,12,2,12,0.01
2013-6-7,68,60,58,68,55,-41,24,1,1,30.07,29.69,21,4,23,2.22
2013-6-8,77,67,55,69,53,-38,66,19,1,30.06,29.55,23,-10,23,1.52
2013-6-9,79,69,60,66,54,-38,69,37,1,30.20,30.06,10,-2,10,0.00
2013-6-10,74,66,61,72,59,-38,57,7,1,30.21,29.92,18,2,18,1.67
2013-6-11,79,69,62,77,64,-38,66,7,1,29.92,29.62,17,3,17,0.63
2013-6-12,68,65,63,58,44,-13,70,52,5,29.87,29.67,13,4,13,0.00
2013-6-13,65,61,57,63,41,-41,70,25,1,29.86,29.52,29,4,29,0.30
2013-6-14,70,61,55,63,53,-42,70,29,2,29.87,29.53,30,-3,30,0.61
2013-6-15,79,67,60,65,53,-26,68,32,2,30.01,29.87,12,1,12,0.00
2013-6-16,80,70,63,64,55,1,69,52,8,30.01,29.80,17,3,18,0.00
2013-6-17,85,72,66,76,58,-37,66,19,1,29.96,29.86,23,2,24,0.27
2013-6-18,80,68,61,76,60,-34,61,6,2,29.94,29.86,15,2,15,0.54
2013-6-19,76,67,60,63,48,-41,66,33,2,30.19,29.88,20,-2,22,0.17
2013-6-20,77,67,61,63,51,-40,68,51,5,30.31,30.19,13,2,14,0.00
2013-6-21,80,69,60,66,51,-41,68,51,1,30.34,30.27,14,2,14,0.00
2013-6-22,80,69,62,68,55,-40,68,37,1,30.31,30.18,13,2,14,0.00
2013-6-23,85,75,66,76,62,-32,64,32,3,30.23,30.11,18,2,18,0.00
2013-6-24,87,78,71,81,63,-34,62,21,1,30.11,29.96,11,2,15,0.00
2013-6-25,89,78,69,76,58,-32,63,26,1,30.01,29.80,15,2,16,0.00
2013-6-26,81,77,74,77,56,-32,62,31,1,29.86,29.78,10,1,12,0.00
2013-6-27,81,74,70,80,70,-30,21,1,2,29.86,29.68,11,2,12,0.14
2013-6-28,99,76,71,100,61,-27,39,6,1,29.68,29.54,18,-17,19,0.15
2013-6-29,82,75,70,79,65,-30,55,10,1,29.75,29.52,18,-16,18,0.03
2013-6-30,80,74,70,80,74,-31,1,0,1,29.98,29.75,16,1,19,0.06
2013-7-1,82,75,71,79,75,71,0,0,100,30.12,29.97,10,-17,11,0.14
2013-7-2,83,76,73,82,73,-29,28,1,2,30.23,30.12,14,-7,14,0.00
2013-7-3,86,78,72,83,66,-29,53,7,2,30.28,30.22,13,1,13,0.00
2013-7-4,88,80,74,85,70,-26,57,11,1,30.28,30.19,15,-6,15,0.00
2013-7-5,89,81,75,83,68,-30,63,17,1,30.25,30.12,17,2,17,0.00
2013-7-6,89,82,78,82,57,-30,63,26,1,30.16,30.04,16,2,16,0.00
2013-7-7,93,83,78,81,59,-17,66,30,2,30.08,29.95,12,2,13,0.00
2013-7-8,89,80,74,79,56,-32,68,43,1,30.06,29.96,13,2,13,0.00
2013-7-9,88,78,73,78,62,-32,65,20,1,30.11,30.04,8,1,10,0.00
2013-7-10,86,79,73,84,61,-30,42,8,3,30.06,29.84,16,-4,16,0.00
2013-7-11,82,77,74,81,77,74,0,0,100,29.94,29.83,12,-7,12,0.07
2013-7-12,78,74,69,76,56,-33,33,3,2,30.16,29.94,15,5,18,0.02
2013-7-13,81,74,68,81,74,68,0,0,100,30.33,30.16,14,-11,14,0.13
2013-7-14,149,79,73,100,71,-28,58,8,1,30.35,30.25,10,-11,10,0.02
2013-7-15,86,82,75,83,55,-29,50,11,1,30.26,30.15,7,-8,7,0.02
2013-7-16,89,82,74,86,59,-29,62,19,1,30.20,30.14,5,-7,5,0.00
2013-7-17,90,80,75,84,74,-30,61,15,3,30.22,30.08,10,2,10,0.00
2013-7-18,94,85,78,86,64,-30,63,27,1,30.09,29.98,14,1,14,0.00
2013-7-19,93,85,81,86,58,-28,63,26,1,29.99,29.81,18,3,18,0.00
2013-7-20,92,84,79,82,63,-29,65,34,1,29.87,29.72,15,3,18,0.00
2013-7-21,85,78,73,75,65,-19,69,52,7,30.01,29.86,13,2,13,0.00
2013-7-22,83,77,73,83,72,-28,22,1,2,30.00,29.86,11,1,11,0.00
2013-7-23,112,78,71,100,69,-27,27,2,1,29.86,29.59,18,-27,18,0.25
2013-7-24,85,78,72,85,62,-30,63,22,7,29.93,29.68,21,-6,21,0.01
2013-7-25,72,65,62,66,53,-40,60,13,2,30.08,29.93,20,8,21,0.27
2013-7-26,75,68,62,75,65,-34,34,1,6,30.09,29.98,19,-12,19,0.35
2013-7-27,82,73,67,76,67,-33,64,14,1,30.11,30.01,11,-10,11,0.01
2013-7-28,78,73,69,76,68,-32,47,4,8,30.04,29.98,8,0,8,0.00
2013-7-29,85,76,71,85,66,-33,62,8,1,30.10,29.98,11,-10,11,0.01
2013-7-30,83,74,68,71,61,-34,66,49,3,30.17,30.09,19,2,22,0.00
2013-7-31,81,73,68,70,58,-36,68,38,2,30.18,30.08,8,1,8,0.00
2013-8-1,79,71,67,74,64,-33,66,13,1,30.08,29.88,11,1,12,0.16
2013-8-2,142,75,68,100,64,-33,63,21,1,29.94,29.82,11,-7,11,0.05
2013-8-3,82,73,69,74,59,-34,63,17,1,29.94,29.86,11,2,12,0.04
2013-8-4,83,74,69,71,62,-34,69,55,10,29.96,29.85,21,4,21,0.00
2013-8-5,79,70,64,62,56,44,70,63,49,30.08,29.95,27,4,27,0.00
2013-8-6,79,71,64,69,56,-38,70,47,1,30.18,30.07,12,2,13,0.00
2013-8-7,78,71,64,70,56,-38,69,41,3,30.21,30.14,14,2,15,0.00
2013-8-8,83,76,71,79,58,-34,58,12,1,30.14,30.06,16,-8,17,0.00
2013-8-9,81,76,74,81,76,74,0,0,100,30.08,29.83,17,-4,17,0.09
2013-8-10,84,76,70,100,61,-32,60,23,4,30.07,29.85,17,-27,17,0.02
2013-8-11,80,72,66,63,55,-4,65,56,7,30.14,30.06,17,-9,18,0.00
2013-8-12,79,72,69,78,68,-31,26,1,2,30.08,29.96,6,-11,7,0.24
2013-8-13,74,70,68,73,70,68,0,0,100,29.98,29.73,9,-14,11,0.55
2013-8-14,75,70,64,70,56,-36,65,47,6,30.05,29.74,22,-4,22,0.02
2013-8-15,79,69,63,61,54,37,66,58,36,30.17,30.05,20,-8,22,0.00
2013-8-16,79,70,64,71,47,-38,64,35,1,30.25,30.15,9,-6,11,0.00
2013-8-17,80,71,66,69,58,-38,64,38,2,30.31,30.24,8,-6,8,0.00
2013-8-18,75,69,63,72,52,-34,65,46,13,30.30,30.15,8,-10,9,0.01
2013-8-19,78,71,62,73,49,-33,60,34,2,30.16,30.04,10,-10,10,0.00
2013-8-20,84,75,69,74,54,-34,66,31,2,30.16,30.06,8,-6,8,0.00
2013-8-21,87,76,68,79,64,-30,64,18,1,30.20,30.08,13,-2,13,0.00
2013-8-22,125,74,72,100,73,-29,16,0,1,30.10,29.92,11,-34,12,0.01
2013-8-23,77,73,66,73,50,-37,60,28,2,30.13,29.94,18,-12,18,0.00
2013-8-24,75,68,63,69,50,-39,63,46,3,30.39,30.13,14,-8,15,0.00
2013-8-25,82,71,60,72,45,-39,64,37,1,30.42,30.25,12,-9,13,0.00
2013-8-26,84,73,68,74,59,-33,65,40,3,30.27,29.96,14,-9,14,0.27
2013-8-27,71,71,71,71,71,71,0,0,100,29.96,29.95,6,1,6,0.27
2013-8-28,71,71,71,71,71,71,0,0,100,29.93,29.93,1,-500,1,0.28
2013-8-29,75,70,66,75,70,-34,2,0,1,30.08,29.92,12,-12,12,0.00
2013-8-30,81,72,62,80,62,-31,24,2,1,30.07,29.89,13,-11,13,0.00
2013-8-31,83,76,71,82,74,-29,11,0,1,29.91,29.84,13,-11,14,0.00
2013-9-1,99,77,72,81,77,72,0,0,100,29.91,29.85,12,-26,12,0.00
2013-9-2,81,76,72,81,76,72,0,0,100,29.88,29.74,2,-16,2,0.00
2013-9-3,76,73,70,76,66,-34,47,4,1,29.90,29.73,14,-23,14,0.03
2013-9-4,80,73,67,70,49,-36,62,35,1,30.00,29.88,10,-11,10,0.00
2013-9-5,75,70,66,74,50,-36,64,44,1,30.16,29.93,27,-4,27,0.00
2013-9-6,71,63,58,53,48,44,66,59,45,30.28,30.16,23,-3,24,0.00
2013-9-7,77,67,58,61,51,25,65,57,25,30.17,29.94,11,-2,11,0.00
2013-9-8,78,71,63,68,49,-37,63,46,1,30.11,29.83,25,-5,25,0.00
2013-9-9,69,62,54,53,46,2,67,58,11,30.29,30.11,17,-8,17,0.00
2013-9-10,78,71,62,78,58,-40,39,5,1,30.22,30.08,20,-8,20,0.00
2013-9-11,90,79,73,85,72,-30,56,12,4,30.14,30.03,16,-9,18,0.00
2013-9-12,83,76,70,82,68,-29,29,2,2,30.04,29.73,19,-9,20,0.33
2013-9-13,78,71,64,78,57,-32,40,9,3,29.83,29.65,26,-1,26,0.34
2013-9-14,70,63,58,63,36,-42,64,37,1,30.12,29.82,21,-5,22,0.00
2013-9-15,72,63,58,62,46,-41,64,47,1,30.24,30.12,18,-3,18,0.00
2013-9-16,69,64,58,66,48,-40,66,35,1,30.26,30.08,27,-4,28,0.00
2013-9-17,64,56,49,47,42,36,68,61,50,30.46,30.26,27,-2,27,0.00
2013-9-18,70,60,52,53,46,14,67,59,18,30.38,30.22,8,-10,10,0.00
2013-9-19,76,65,56,65,47,-42,66,29,1,30.23,30.11,9,-10,10,0.00
2013-9-20,77,66,58,70,58,-39,65,17,1,30.14,30.06,14,-6,14,0.00
2013-9-21,77,70,60,75,57,-34,44,7,1,30.07,29.75,17,-9,19,0.01
2013-9-22,73,67,58,72,57,2,65,32,11,29.91,29.68,34,-14,34,0.42
2013-9-23,64,58,54,50,45,34,67,62,50,30.06,29.90,32,4,32,0.00
2013-9-24,69,60,51,55,46,28,65,59,38,30.07,29.88,24,-5,24,0.00
2013-9-25,72,63,55,57,45,-43,65,54,2,29.98,29.91,17,-6,17,0.00
2013-9-26,65,61,56,62,50,-43,65,36,2,30.14,29.97,9,-6,10,0.00
2013-9-27,64,61,56,62,45,-41,61,27,2,30.30,30.14,17,-3,18,0.00
2013-9-28,72,63,58,62,48,-40,65,21,1,30.36,30.28,10,-6,10,0.00
2013-9-29,68,61,55,63,51,-44,67,30,2,30.28,30.13,11,-6,12,0.00
2013-9-30,71,63,59,63,56,-40,63,16,3,30.13,30.01,9,-9,10,0.00
2013-10-1,76,68,62,70,47,-38,57,19,1,30.03,29.92,8,-7,8,0.00
2013-10-2,76,70,64,72,54,-35,42,11,1,30.03,29.93,8,-7,8,0.00
2013-10-3,74,69,65,70,55,-36,65,54,12,30.14,30.02,16,-5,16,0.00
2013-10-4,78,69,62,75,55,-39,64,14,1,30.11,30.01,8,-7,9,0.02
2013-10-5,70,65,63,70,65,62,0,0,100,30.14,30.06,7,-8,8,0.00
2013-10-6,67,64,63,67,64,63,0,0,100,30.19,30.11,12,-13,13,0.01
2013-10-7,96,72,67,100,74,67,0,0,100,30.11,29.88,6,-16,6,0.01
2013-10-8,65,62,58,50,47,43,64,58,50,30.36,30.17,25,-7,26,0.00
2013-10-9,63,58,54,50,44,30,66,61,38,30.45,30.34,23,-2,23,0.00
2013-10-10,65,60,54,65,34,-41,37,10,1,30.34,30.13,19,-6,21,0.01
2013-10-11,69,64,60,66,48,-24,62,19,8,30.14,30.07,19,-3,19,0.00
2013-10-12,70,62,58,62,37,-40,64,43,1,30.35,30.12,26,-1,26,0.00
2013-10-13,60,57,51,56,27,-45,59,24,1,30.43,30.32,20,-8,21,0.00
2013-10-14,62,55,50,54,34,-46,63,24,2,30.42,30.30,9,-10,10,0.00
2013-10-15,68,59,53,59,44,-45,67,32,1,30.31,30.19,15,-6,15,0.00
2013-10-16,65,61,56,65,47,-42,30,4,1,30.19,29.96,11,-6,11,0.00
2013-10-17,71,65,59,70,59,-36,22,1,1,29.96,29.76,11,-7,11,0.00
2013-10-18,66,64,60,66,52,32,63,46,31,29.99,29.69,14,-6,14,0.00
2013-10-19,67,60,53,59,46,-42,64,49,3,30.04,29.79,10,-10,10,0.01
2013-10-20,62,59,55,61,46,6,65,49,13,30.09,29.75,12,-5,14,0.07
2013-10-21,65,58,52,50,44,31,67,61,41,30.19,30.04,12,-6,12,0.00
2013-10-22,68,60,54,57,40,-44,67,49,1,30.04,29.77,16,-9,16,0.00
2013-10-23,55,51,49,44,39,34,69,64,53,29.85,29.64,18,-8,18,0.01
2013-10-24,55,51,47,41,38,33,69,61,48,29.99,29.74,22,-3,22,0.00
2013-10-25,51,49,46,39,37,33,69,62,54,30.24,29.98,24,-7,24,0.00
2013-10-26,55,51,44,42,37,32,69,60,46,30.23,29.95,22,-4,22,0.00
2013-10-27,57,53,49,42,39,36,69,59,49,30.13,29.88,14,-8,15,0.00
2013-10-28,59,54,49,45,40,36,65,59,53,30.35,30.13,19,-11,19,0.00
2013-10-29,52,47,44,39,35,32,69,63,52,30.46,30.35,14,-9,14,0.00
2013-10-30,60,54,43,56,39,-44,70,52,1,30.40,30.23,8,-11,8,0.00
2013-10-31,67,62,52,66,43,-40,47,9,1,30.28,29.88,21,-5,21,0.00
2013-11-1,68,64,62,68,44,-40,45,8,1,29.88,29.59,25,-21,25,0.08
2013-11-2,63,60,54,63,38,-29,64,36,2,29.79,29.65,14,-6,14,0.00
2013-11-3,58,48,39,45,35,27,67,61,43,30.45,29.78,30,5,31,0.00
2013-11-4,44,40,37,30,26,21,70,58,43,30.71,30.45,27,-6,27,0.00
2013-11-5,54,46,38,40,34,24,70,62,41,30.72,30.55,12,-10,12,0.00
2013-11-6,62,55,46,58,39,-48,65,31,2,30.56,30.12,13,-14,15,0.00
2013-11-7,65,57,47,65,53,11,67,19,21,30.12,29.76,31,-11,31,0.20
2013-11-8,50,46,44,37,35,32,69,64,55,30.21,29.93,23,-6,23,0.00
2013-11-9,48,45,42,38,34,29,69,64,53,30.31,30.08,14,-9,18,0.00
2013-11-10,58,52,47,45,40,36,69,65,53,30.08,29.80,33,-5,33,0.00
2013-11-11,53,49,46,42,37,33,68,62,51,30.21,29.99,25,-7,33,0.00
2013-11-12,52,39,34,40,29,-57,73,57,6,30.28,29.94,33,0,33,0.01
2013-11-13,40,35,31,29,24,21,74,62,49,30.38,30.27,25,0,29,0.00
2013-11-14,52,43,33,34,26,20,70,52,33,30.30,30.17,19,-7,19,0.00
2013-11-15,59,50,43,42,34,10,71,55,23,30.29,30.21,15,-9,15,0.00
2013-11-16,58,51,47,51,36,-48,66,44,1,30.37,30.26,11,-7,12,0.00
2013-11-17,63,58,48,62,51,-48,25,2,2,30.33,29.87,14,-10,14,0.01
2013-11-18,61,58,53,60,47,-41,70,52,15,29.87,29.64,21,-14,21,0.02
2013-11-19,53,47,37,38,34,26,70,61,54,30.36,29.75,27,-32,27,0.00
2013-11-20,42,38,33,28,24,20,71,58,43,30.66,30.36,28,-4,28,0.00
2013-11-21,50,43,34,37,33,22,74,67,58,30.67,30.43,12,-6,12,0.00
2013-11-22,55,52,48,55,42,-46,64,13,1,30.43,29.91,14,-10,14,0.09
2013-11-23,54,44,35,54,32,-45,73,52,5,30.02,29.88,27,0,27,0.01
2013-11-24,35,29,26,24,16,11,69,59,46,30.34,29.93,50,4,52,0.00
2013-11-25,36,30,24,26,19,14,73,64,53,30.50,30.32,22,-7,25,0.00
2013-11-26,54,41,34,54,28,-42,72,39,2,30.38,29.93,16,-6,18,0.24
2013-11-27,57,49,40,57,45,28,72,32,62,29.93,29.53,26,-22,26,0.50
2013-11-28,40,34,32,31,22,18,72,61,51,30.51,29.66,26,-11,26,0.00
2013-11-29,38,34,31,25,22,17,68,61,51,30.77,30.51,21,-6,23,0.00
2013-11-30,40,33,26,32,22,15,75,65,50,30.81,30.43,21,-5,21,0.00
2013-12-1,44,42,40,34,33,31,73,70,64,30.44,30.33,7,2,8,0.00
2013-12-2,45,42,40,43,35,-52,29,3,4,29.98,29.93,4,-18,4,0.00
2013-12-3,48,44,41,44,34,20,62,31,34,30.04,29.92,15,-35,15,0.00
2013-12-4,46,44,40,46,22,-51,66,40,2,30.20,30.03,12,-18,13,0.00
2013-12-5,46,46,46,46,46,46,0,0,100,30.20,30.19,2,-249,5,0.00
2013-12-7,40,38,34,31,28,23,71,67,62,30.53,30.31,26,-10,26,0.00
2013-12-8,34,33,32,34,23,-57,74,67,2,30.64,30.44,28,-12,28,0.00
2013-12-9,40,33,31,40,33,31,0,0,100,30.45,30.00,18,-56,20,0.00
2013-12-10,41,37,34,38,29,-45,71,27,5,30.12,29.84,26,2,26,0.23
2013-12-11,36,32,30,25,22,19,74,65,55,30.34,30.12,20,-12,20,0.00
2013-12-12,33,26,23,24,15,10,73,62,54,30.37,30.17,27,-6,27,0.00
2013-12-13,35,32,24,25,21,11,75,64,58,30.39,30.13,22,-4,22,0.00
2013-12-14,36,26,21,36,12,-61,75,41,2,30.58,30.08,19,-8,19,0.00
2013-12-15,40,37,33,38,26,-55,71,39,2,29.84,29.55,21,-4,21,0.00
2013-12-16,36,30,28,27,19,14,71,62,55,30.27,29.83,18,-6,21,0.00
2013-12-17,36,30,23,36,19,-60,71,21,2,30.28,29.94,25,-24,25,0.20
2013-12-18,36,33,31,27,24,13,71,67,48,30.19,30.00,20,-4,24,0.00
2013-12-19,47,40,30,34,29,21,71,64,49,30.21,30.06,16,-9,17,0.07
2013-12-20,54,48,39,51,33,-46,71,56,1,30.17,30.02,15,-11,15,0.00
2013-12-21,61,56,49,60,40,-48,64,21,4,30.06,29.96,21,-1,21,0.00
2013-12-22,63,61,54,63,53,-41,48,5,1,30.03,29.87,26,6,26,0.00
2013-12-23,61,53,42,61,51,-30,42,1,2,30.15,29.92,25,4,25,0.49
2013-12-24,42,36,31,31,25,19,74,65,43,30.31,30.09,30,13,31,0.02
2013-12-25,31,25,21,21,14,9,75,65,52,30.59,30.30,32,6,33,0.00
2013-12-26,40,35,26,29,21,1,75,60,24,30.49,30.18,15,3,15,0.00
2013-12-27,39,36,33,30,27,24,73,69,57,30.38,30.29,14,6,15,0.00
2013-12-28,51,42,31,37,31,24,73,65,47,30.34,30.11,23,4,23,0.00
2013-12-29,57,46,42,57,40,-31,70,34,17,30.12,29.38,26,5,26,1.48
2013-12-30,44,37,22,42,26,-52,71,42,4,30.23,29.67,27,9,29,0.01
2013-12-31,33,26,20,26,17,10,75,69,60,30.29,30.11,23,6,23,0.00
2014-1-1,31,29,26,23,19,15,74,66,60,30.46,30.28,17,4,17,0.00
2014-1-2,32,28,19,31,-2,-64,75,22,1,30.33,29.70,31,10,31,0.00